This demonstration page uses our WeatherBlox Daily Observations layout. Learn more.

Left ArrowRight Arrow

36.19886, -115.1175

Hourly Observations for December 8, 2020

Temp ( °F °C ) Dew Point ( °F °C ) Humidity (%) Winds ( mph kmh ) Pressure ( in mb ) Visibility ( mi km ) Precip ( " mm )
12:53 am 00:53 Clear 51 10.6 9 -12.8 18 18 WNW 5 7 30.27 1025 10 16 N/A
1:53 am 01:53 Clear 48 8.9 10 -12.2 21 21 W 7 11 30.29 1026 10 16 N/A
2:53 am 02:53 Clear 50 10 9 -12.8 19 19 VRB 5 7 30.29 1026 10 16 N/A
3:53 am 03:53 Clear 43 6.1 9 -12.8 25 25 NW 6 9 30.30 1026 10 16 N/A
4:53 am 04:53 Clear 45 7.2 10 -12.2 24 24 WNW 7 11 30.31 1026 10 16 N/A
5:53 am 05:53 Clear 44 6.7 8 -13.3 23 23 WNW 8 13 30.32 1027 10 16 N/A
6:53 am 06:53 Sunny 40 4.4 12 -11.1 32 32 W 3 6 30.34 1028 10 16 N/A
7:53 am 07:53 Sunny 49 9.4 10 -12.2 21 21 W 8 13 30.35 1028 10 16 N/A
8:53 am 08:53 Sunny 55 12.8 9 -12.8 16 16 SW 3 6 30.37 1028 10 16 N/A
9:53 am 09:53 Sunny 59 15 9 -12.8 13 13 SW 3 6 30.36 1028 10 16 N/A
10:53 am 10:53 Sunny 62 16.7 9 -12.8 12 12 WSW 3 6 30.32 1027 10 16 N/A
11:53 am 11:53 Sunny 64 17.8 9 -12.8 11 11 SE 5 7 30.29 1026 10 16 N/A
12:53 pm 12:53 Sunny 67 19.4 8 -13.3 10 10 N N/A 30.25 1024 10 16 N/A
1:53 pm 13:53 Sunny 68 20 6 -14.4 9 9 N N/A 30.23 1024 10 16 N/A
2:53 pm 14:53 Sunny 69 20.6 5 -15 8 8 N N/A 30.21 1023 10 16 N/A
3:53 pm 15:53 Sunny 68 20 6 -14.4 9 9 N N/A 30.22 1023 10 16 N/A
4:53 pm 16:53 Clear 63 17.2 10 -12.2 12 12 SW 5 7 30.22 1023 10 16 N/A
5:53 pm 17:53 Clear 59 15 13 -10.6 16 16 WNW 6 9 30.22 1024 10 16 N/A
6:53 pm 18:53 Clear 58 14.4 14 -10 18 18 WNW 3 6 30.23 1024 10 16 N/A
7:53 pm 19:53 Clear 55 12.8 13 -10.6 19 19 WNW 6 9 30.22 1023 10 16 N/A
8:53 pm 20:53 Clear 52 11.1 14 -10 22 22 W 3 6 30.22 1023 10 16 N/A
9:53 pm 21:53 Clear 52 11.1 12 -11.1 20 20 NNW 5 7 30.22 1024 10 16 N/A
10:53 pm 22:53 Clear 49 9.4 12 -11.1 22 22 WNW 5 7 30.22 1023 10 16 N/A
11:53 pm 23:53 Clear 50 10 14 -10 24 24 W 9 15 30.22 1023 10 16 N/A

Powered by AerisWeather